Regional Weather Roundup
Issued by NWS

Home | Current Version | Previous Version | Graphics & Text | Print | Product List | Glossary Off
Versions: 1 2 3 4 5 6 7 8 9 10 11 12 13 14 15 16 17 18 19 20 21 22 23 24 25 26 27 28 29 30 31 32 33 34 35 36 37 38 39 40 41 42 43 44 45 46 47 48 49 50

000
ASUS43 KDTX 261510
RWRMI
MICHIGAN HOURLY REGIONAL WEATHER ROUNDUP
NATIONAL WEATHER SERVICE DETROIT/PONTIAC MI
1100 AM EDT MON SEP 26 2016

NOTE: "FAIR" INDICATES FEW OR NO CLOUDS BELOW 12,000 FEET WITH NO
SIGNIFICANT WEATHER AND/OR OBSTRUCTION TO VISIBILITY.

MIZ047>049-052>055-059>063-066>070-074>076-081>083-261600-
SOUTHEAST LOWER MICHIGAN

CITY           SKY/WX    TMP DP  RH WIND       PRES   REMARKS
ADRIAN         CLOUDY    60  59  96 W9G17     29.96S
ALMA           PTSUNNY   59  53  80 W12G17    29.89R
ANN ARBOR      CLOUDY    61  59  93 S8        29.93R
BAD AXE        LGT RAIN  60  58  92 W9        29.82F
CARO           CLOUDY    59  55  85 W12G25    29.86R
DETROIT CITY   LGT RAIN  63  62  97 SW9       29.91R
DETROIT        CLOUDY    63  61  93 SW12      29.93R
FLINT          CLOUDY    58  53  84 W13G23    29.91R
GROSSE ILE     DRIZZLE   62  60  93 SW10G16   29.93R
HILLSDALE      CLOUDY    61  55  82 W10G16    29.96S
HOWELL         CLOUDY    60  57  88 W10       29.92R

CITY           SKY/WX    TMP DP  RH WIND       PRES   REMARKS
JACKSON        CLOUDY    60  57  89 W13       29.94S
LAMBERTVILLE   CLOUDY    62  60  91 W5        29.95S
LANSING        PTSUNNY   60  52  74 W13       29.93R
LAPEER         CLOUDY    61  58  91 W9G17     29.88R
MASON          CLOUDY    60  55  84 W12       29.93R
MONROE         CLOUDY    62  60  94 W12G20    29.94R
MT. CLEMENS    LGT RAIN  64  63  99 SW12      29.89R
PONTIAC        CLOUDY    61  58  90 W10       29.90R
PORT HOPE        N/A     62  59  90 W8        29.81R
PORT HURON     LGT RAIN  63  61  94 S9        29.87R
TRI CITIES     PTSUNNY   59  53  80 W16       29.88R
MIDLAND        FAIR      58  52  81 SW8       29.85R
TROY           CLOUDY    63  59  87 W9G17     29.93R
SAGINAW HB     CLOUDY    61  52  72 W12       29.87R
$$
MIZ043>046-050>051-056>058-064>065-071>073-077>080-261600-
SOUTHWEST LOWER MICHIGAN

CITY           SKY/WX    TMP DP  RH WIND       PRES   REMARKS
BATTLE CREEK   CLOUDY    60  55  83 W10       29.95R
BENTON HARBOR  CLOUDY    63  41  44 W21G26    29.96S
BIG RAPIDS     CLOUDY    61  52  71 SW18G24   29.84F
COLDWATER      CLOUDY    60  56  87 W10       29.96S
FREMONT        FAIR      60  45  58 W12G17    29.88R
HOLLAND        CLOUDY    63  46  54 W14G28    29.93R
GRAND RAPIDS   PTSUNNY   60  49  66 W10       29.91R
IONIA          FAIR      58  50  75 SW9       29.90R
KALAMAZOO      CLOUDY    60  52  74 W7        29.96R
LUDINGTON      CLOUDY    58  48  69 W16G24    29.84S
MARSHALL       CLOUDY    60  57  89 W8        29.94S
MOUNT PLEASANT CLOUDY    58  50  75 SW8G16    29.85R
MUSKEGON       CLOUDY    64  47  53 W20G26    29.90R
SOUTH HAVEN    CLOUDY    64  46  51 W10G21    29.95S
$$
MIZ016>042-261600-
NORTHERN LOWER MICHIGAN

CITY           SKY/WX    TMP DP  RH WIND       PRES   REMARKS
ALPENA         CLOUDY    59  56  89 SW6       29.76S
BEAVER ISLAND  CLOUDY    57  47  67 W15G24    29.70S
BELLAIRE       CLOUDY    58  47  67 SW7G18    29.77S
CADILLAC       CLOUDY    56  48  75 W13G18    29.81S
CHARLEVOIX     CLOUDY    57  47  69 SW14G22   29.77R
FRANKFORT      CLOUDY    58  45  61 SW13G25   29.79S
GAYLORD        PTSUNNY   56  48  74 SW16G25   29.76F
GRAYLING       CLOUDY    56  51  84 SW7       29.79F
HARBOR SPRINGS CLOUDY    58  49  71 SW17G24   29.72S
HOUGHTON LAKE  CLOUDY    56  49  77 W12G21    29.82S
MANISTEE       CLOUDY    58  46  64 W16G29    29.82R
OSCODA         CLOUDY    59  57  93 SW13      29.78R
PELLSTON       PTSUNNY   58  49  72 SW10G22   29.72S
ROGERS CITY    PTSUNNY   59  56  90 SW10      29.74S
TRAVERSE CITY  CLOUDY    58  47  66 SW10G17   29.77S
$$
MIZ007>008-015-261600-
EASTERN UPPER MICHIGAN

CITY           SKY/WX    TMP DP  RH WIND       PRES   REMARKS
KINROSS        CLOUDY    57  56  96 SW9       29.68S
MACKINAC ISLAN CLOUDY    58  52  78 SW15G24   29.68F
NEWBERRY       PTSUNNY   53  50  89 SW16G22   29.66S
S. S. MARIE    CLOUDY    59  55  87 SW9       29.65S
MUNISING         N/A     56  48  74 SW10G22   29.63F
$$
MIZ004>006-011>014-085-261600-
CENTRAL UPPER MICHIGAN

CITY           SKY/WX    TMP DP  RH WIND       PRES   REMARKS
MANISTIQUE     PTSUNNY   56  47  71 SW9G22    29.67F
ESCANABA       PTSUNNY   56  48  74 W13G24    29.69S
MENOMINEE      CLOUDY    57  47  69 W10G20    29.74S
SAWYER-GWINN   CLOUDY    52  46  82 SW13G18   29.63F
$$
MIZ001>003-009>011-084-261600-
WESTERN UPPER MICHIGAN

CITY           SKY/WX    TMP DP  RH WIND       PRES   REMARKS
IRON MOUNTAIN  CLOUDY    54  45  71 W15G23    29.67S
HOUGHTON       LGT RAIN  53  50  89 W18G30    29.51S
COPPER HARBOR    N/A     53  51  93 W10G21    29.48F
IRONWOOD       LGT RAIN  49  47  93 W22G30    29.67R
$$

ABBREVIATIONS USED IN REMARKS
   TC - TEMPERATURE IN CELSIUS
  WCI - WIND CHILL INDEX
   HX - HEAT INDEX
  VSB - VISIBILITY





USA.gov is the U.S. government's official web portal to all federal, state and local government web resources and services.